Regional Weather Roundup
Issued by NWS

Home | Current Version | Previous Version | Text Only | Print | Product List | Glossary Off
Versions: 1 2 3 4 5 6 7 8 9 10 11 12 13 14 15 16 17 18 19 20 21 22 23 24 25 26 27 28 29 30 31 32 33 34 35 36 37 38 39 40 41 42 43 44

000
ASUS45 KPSR 291010
RWRAZ

ARIZONA REGIONAL HOURLY WEATHER ROUNDUP
NATIONAL WEATHER SERVICE TUCSON AZ
300 AM MST THU JUN 29 2017

NOTE: FAIR INDICATES FEW OR NO CLOUDS BELOW 12,000 FEET WITH NO
SIGNIFICANT WEATHER AND/OR OBSTRUCTIONS TO VISIBILITY.

AZZ001>003-036-291100-
NORTHWEST ARIZONA

CITY           SKY/WX    TMP DP  RH WIND       PRES   REMARKS
BULLHEAD CITY  CLEAR     88  25  10 CALM      29.69R
KINGMAN        CLEAR     72  20  14 S13       29.90S
$$

AZZ004>008-015-016-018-291100-
NORTH CENTRAL ARIZONA

CITY           SKY/WX    TMP DP  RH WIND       PRES   REMARKS
GRAND CANYON   PTCLDY    41  13  31 E3        30.15S
PRESCOTT       CLEAR     63  33  32 S6        30.05S
FLAGSTAFF      CLEAR     48  26  42 CALM      30.19S
PAYSON         SUNNY     64  30  27 NE5       30.09S
PAGE           CLEAR     75  12   9 CALM      29.90R
$$

AZZ009>014-017-291100-
NORTHEAST ARIZONA

CITY           SKY/WX    TMP DP  RH WIND       PRES   REMARKS
WINSLOW        CLEAR     59  30  33 SW6       30.03R
SAINT JOHNS    CLEAR     61  28  28 S7        30.09S
WINDOW ROCK    CLEAR     59  28  30 SW5       30.15S
SHOW LOW       CLEAR     59  28  31 S9        30.16S
$$

AZZ023-291100-
GREATER PHOENIX AREA

CITY           SKY/WX    TMP DP  RH WIND       PRES   REMARKS
PHOENIX        CLEAR     87  44  22 E6        29.76R
BUCKEYE        SUNNY     77  45  31 NW5       29.77R
LUKE AFB       CLEAR     86  49  27 SW12      29.74R
DEER VALLEY    CLEAR     83  48  29 S5        29.78R
SCOTTSDALE     CLEAR     87  46  24 CALM      29.80S
MESA-GATEWAY   CLEAR     79  36  21 E9        29.80S
$$

AZZ027-028-291100-
SOUTHWEST MARICOPA COUNTY AND PINAL COUNTY

CITY           SKY/WX    TMP DP  RH WIND       PRES   REMARKS
CASA GRANDE    CLEAR     81  47  30 SE5       29.81R
$$

AZZ503-504-507>509-291100-
SOUTHEAST ARIZONA

CITY           SKY/WX    TMP DP  RH WIND       PRES   REMARKS
TUCSON         CLEAR     83  39  21 CALM      29.92S
DAVIS-MONTHAN  CLEAR     80  39  23 E3        29.91S
NOGALES        CLEAR     74  55  51 CALM      30.02S
SIERRA VISTA   CLEAR     75  51  42 SW12      30.07R
DOUGLAS        CLEAR     70  49  47 N7        30.03R
SAFFORD        CLEAR     82  36  19 NW9       29.90R
$$

AZZ020-021-025-026-031-291100-
SOUTHWEST ARIZONA

CITY           SKY/WX    TMP DP  RH WIND       PRES   REMARKS
YUMA           CLEAR     81  64  56 SE8       29.70F
$$

CAZ031-033-041-043-047-048-061-291100-
SOUTHERN CALIFORNIA

CITY           SKY/WX    TMP DP  RH WIND       PRES   REMARKS
DOWNTOWN L.A.  CLOUDY    66  58  75 CALM      29.89S HAZE
L.A. AIRPORT   CLOUDY    64  58  80 SE5       29.89F
SAN DIEGO      CLOUDY    63  57  81 S6        29.92F
BURBANK        PTCLDY    63  57  81 SE7       29.89F
ONTARIO        CLEAR     61  56  83 SW6       29.90F
RIVERSIDE      CLEAR     60  57  89 CALM      29.90F
PALM SPRINGS   CLEAR     79  45  29 CALM      29.71S
IMPERIAL       CLEAR     77  31  18 SW9       29.68S
BLYTHE         CLEAR     78  33  19 S3        29.70R
NEEDLES        CLEAR     89  23   9 E7        29.71R
$$

NVZ020-UTZ003-291100-
SOUTHERN NEVADA-UTAH

CITY           SKY/WX    TMP DP  RH WIND       PRES   REMARKS
LAS VEGAS      CLEAR     86  25  11 SW6       29.76R
SALT LAKE CITY PTCLDY    68  49  50 N3        29.94R
$$

NMZ009-TXZ055-291100-
NEW MEXICO-WEST TEXAS

CITY           SKY/WX    TMP DP  RH WIND       PRES   REMARKS
ALBUQUERQUE    CLEAR     75  18  11 S8        30.03R
EL PASO        PTCLDY    86  36  16 W15G22    29.92R
$$


........................KEY........................
SKY/WX - SKY CONDITION/WEATHER
TMP    - TEMPERATURE IN FAHRENHEIT
DP     - DEWPOINT IN FAHRENHEIT
RH     - RELATIVE HUMIDITY IN PERCENT
WIND   - DIRECTION AND SPEED IN MILES PER HOUR (MPH)
VRB    - VARIABLE WIND DIRECTION
PRES   - MEAN SEA LEVEL PRESSURE IN INCHES OF MERCURY
         F - FALLING PRESSURE   R - RISING PRESSURE
         S - STEADY PRESSURE
VSB    - VISIBILITY IN MILES
HX     - HEAT INDEX IN FAHRENHEIT
WCI    - WIND CHILL INDEX IN FAHRENHEIT
TC     - TEMPERATURE IN CELSIUS WHICH IS ALSO KNOWN AS
         TEMPERATURE IN CENTIGRADE
AFB    - AIR FORCE BASE
         LUKE AFB IS LUKE AIR FORCE BASE
         DAVIS-MONTHAN IS DAVIS-MONTHAN AIR FORCE BASE
NAS    - NAVAL AIR STATION
         EL CENTRO NAS IS EL CENTRO NAVAL AIR STATION
N/A    - NOT AVAILABLE





USA.gov is the U.S. government's official web portal to all federal, state and local government web resources and services.